Change the Weather History Date:

Tuesday, October 23, 2012

  Actual Average Record
Temperature  
Mean Temperature 56 °F -  
Max Temperature 60 °F 54 °F 73 °F (1963)
Min Temperature 52 °F 39 °F 26 °F (2002)
Degree Days  
Heating Degree Days 9    
Growing Degree Days 6 (Base 50)    
Moisture  
Dew Point 49 °F    
Average Humidity 80    
Maximum Humidity 87    
Minimum Humidity 66    
Precipitation  
Precipitation 0.00 in - - ()
Sea Level Pressure  
Sea Level Pressure 29.99 in    
Wind  
Wind Speed 12 mph (East)    
Max Wind Speed 20 mph    
Max Gust Speed 28 mph    
Visibility 10 miles    
Events Rain    
Averages and records for this station are not official NWS values.
T = Trace of Precipitation, MM = Missing Value Source: NWS Daily Summary

Daily Weather History Graph

Daily Weather History Graph

Search for Another Location

Airport or City:

Trip Planner

Search our weather history database for the weather conditions in past years. The results will help you decide how hot, cold, wet, or windy it might be!

Date:

Astronomy

Oct. 23, 2012 Rise Set
Actual Time 8:10 AM EDT 6:42 PM EDT
Civil Twilight 7:39 AM EDT 7:12 PM EDT
Nautical Twilight 7:05 AM EDT 7:47 PM EDT
Astronomical Twilight 6:30 AM EDT 8:21 PM EDT
Moon 3:41 PM EDT (10/23) 1:43 AM EDT (10/23)
Length of Visible Light 11h 32m
Length of Day
10h 31m
Waxing Gibbous, 66% of the Moon is Illuminated
Oct 23
Waxing Gibbous
Oct 29
Full
Nov 6
Last Quarter
Nov 13
New
Nov 20
First Quarter

Hourly Weather History & Observations

Time (EDT) Temp. Dew Point Humidity Pressure Visibility Wind Dir Wind Speed Gust Speed Precip Events Conditions
12:15 AM 54.5 °F 47.8 °F 78% 30.00 in 10.0 mi ENE 6.9 mph - N/A   Overcast
12:35 AM 54.5 °F 48.2 °F 79% 30.00 in 10.0 mi NE 8.1 mph - N/A   Overcast
1:15 AM 53.6 °F 48.0 °F 81% 30.00 in 10.0 mi ENE 8.1 mph - N/A   Overcast
1:35 AM 53.6 °F 48.4 °F 82% 29.99 in 10.0 mi ENE 9.2 mph - N/A   Overcast
2:15 AM 53.6 °F 49.1 °F 85% 29.98 in 10.0 mi ENE 9.2 mph - N/A   Overcast
2:35 AM 53.6 °F 49.1 °F 85% 29.98 in 10.0 mi ENE 8.1 mph - N/A   Overcast
2:55 AM 53.6 °F 49.1 °F 85% 29.98 in 10.0 mi ENE 11.5 mph - N/A   Overcast
3:15 AM 54.5 °F 49.5 °F 83% 29.98 in 10.0 mi ENE 9.2 mph - N/A   Overcast
3:35 AM 53.8 °F 49.1 °F 84% 29.98 in 10.0 mi ENE 10.4 mph 18.4 mph N/A   Overcast
4:15 AM 53.6 °F 48.4 °F 82% 29.99 in 10.0 mi ENE 9.2 mph - N/A   Overcast
4:35 AM 53.8 °F 48.6 °F 82% 29.99 in 10.0 mi ENE 10.4 mph - N/A   Overcast
4:55 AM 54.0 °F 48.9 °F 83% 29.99 in 10.0 mi ENE 10.4 mph 16.1 mph N/A   Overcast
5:15 AM 54.1 °F 49.1 °F 83% 29.99 in 10.0 mi ENE 8.1 mph - N/A   Overcast
5:35 AM 53.8 °F 49.1 °F 84% 29.99 in 10.0 mi ENE 9.2 mph - N/A   Overcast
5:55 AM 53.6 °F 49.1 °F 85% 29.99 in 10.0 mi ENE 11.5 mph 18.4 mph N/A   Overcast
6:15 AM 54.0 °F 49.1 °F 84% 29.99 in 10.0 mi ENE 13.8 mph 21.9 mph N/A   Overcast
6:35 AM 54.5 °F 49.3 °F 83% 30.00 in 10.0 mi East 12.7 mph 23.0 mph N/A   Overcast
6:55 AM 53.6 °F 48.7 °F 84% 30.00 in 10.0 mi East 15.0 mph 20.7 mph N/A   Overcast
7:35 AM 53.1 °F 48.6 °F 85% 30.00 in 10.0 mi ENE 11.5 mph 21.9 mph N/A   Overcast
8:15 AM 53.1 °F 49.1 °F 86% 30.01 in 7.0 mi East 15.0 mph 19.6 mph N/A   Overcast
8:35 AM 52.9 °F 49.1 °F 87% 30.00 in 4.0 mi East 12.7 mph - N/A Rain Light Rain
8:55 AM 52.9 °F 49.1 °F 87% 30.00 in 10.0 mi East 11.5 mph 23.0 mph N/A   Overcast
9:15 AM 53.1 °F 48.7 °F 85% 30.00 in 10.0 mi East 16.1 mph 20.7 mph N/A   Overcast
9:35 AM 53.6 °F 48.2 °F 82% 29.99 in 10.0 mi East 15.0 mph 23.0 mph N/A   Overcast
9:55 AM 53.6 °F 48.2 °F 82% 29.99 in 10.0 mi East 16.1 mph 24.2 mph N/A   Overcast
10:15 AM 54.5 °F 48.6 °F 80% 29.98 in 10.0 mi East 19.6 mph 26.5 mph N/A   Overcast
10:35 AM 54.7 °F 48.2 °F 79% 29.99 in 10.0 mi East 18.4 mph 26.5 mph N/A   Overcast
10:55 AM 55.6 °F 48.2 °F 76% 29.99 in 10.0 mi East 15.0 mph 27.6 mph N/A   Overcast
11:14 AM 55.9 °F 48.4 °F 76% 30.00 in 10.0 mi East 13.8 mph 20.7 mph N/A   Overcast
11:55 AM 56.8 °F 48.2 °F 73% 30.01 in 10.0 mi East 17.3 mph 23.0 mph N/A   Overcast
12:15 PM 56.5 °F 48.0 °F 73% 30.01 in 10.0 mi East 19.6 mph 24.2 mph N/A   Overcast
12:35 PM 57.4 °F 48.6 °F 72% 30.00 in 10.0 mi East 16.1 mph 24.2 mph N/A   Mostly Cloudy
12:55 PM 58.3 °F 48.6 °F 70% 30.00 in 10.0 mi East 18.4 mph 26.5 mph N/A   Overcast
1:15 PM 59.2 °F 49.1 °F 69% 30.00 in 10.0 mi East 13.8 mph 21.9 mph N/A   Overcast
1:35 PM 58.3 °F 49.5 °F 72% 29.99 in 10.0 mi East 10.4 mph 18.4 mph N/A   Overcast
1:55 PM 59.9 °F 49.6 °F 69% 29.98 in 10.0 mi East 17.3 mph 23.0 mph N/A   Overcast
2:15 PM 60.4 °F 49.1 °F 66% 29.98 in 10.0 mi East 17.3 mph 21.9 mph N/A   Overcast
2:35 PM 59.4 °F 48.9 °F 68% 29.98 in 10.0 mi East 16.1 mph 25.3 mph N/A   Scattered Clouds
2:55 PM 58.8 °F 49.1 °F 70% 29.99 in 10.0 mi East 13.8 mph 26.5 mph N/A   Scattered Clouds
3:15 PM 57.6 °F 49.1 °F 73% 29.98 in 10.0 mi East 16.1 mph 23.0 mph N/A   Mostly Cloudy
3:35 PM 57.4 °F 49.1 °F 74% 29.98 in 10.0 mi East 11.5 mph 20.7 mph N/A   Overcast
3:55 PM 57.4 °F 49.3 °F 74% 29.98 in 10.0 mi East 15.0 mph 21.9 mph N/A   Overcast
4:15 PM 56.8 °F 49.1 °F 75% 29.98 in 10.0 mi East 17.3 mph 26.5 mph N/A   Overcast
4:36 PM 56.1 °F 49.1 °F 77% 29.97 in 10.0 mi East 17.3 mph - N/A   Overcast
4:55 PM 55.6 °F 49.1 °F 79% 29.98 in 10.0 mi East 16.1 mph 24.2 mph N/A   Overcast
5:15 PM 55.0 °F 48.9 °F 80% 29.98 in 10.0 mi East 17.3 mph 23.0 mph N/A   Overcast
5:35 PM 54.7 °F 48.9 °F 81% 29.98 in 10.0 mi East 16.1 mph 24.2 mph N/A   Overcast
5:55 PM 54.5 °F 49.1 °F 82% 29.97 in 10.0 mi East 15.0 mph 25.3 mph N/A   Overcast
6:15 PM 54.5 °F 49.1 °F 82% 29.98 in 10.0 mi East 15.0 mph 20.7 mph N/A   Overcast
6:35 PM 54.5 °F 49.3 °F 83% 29.98 in 10.0 mi East 8.1 mph 17.3 mph N/A   Overcast
6:55 PM 54.3 °F 49.3 °F 83% 29.98 in 10.0 mi East 12.7 mph - N/A   Overcast
7:15 PM 54.5 °F 49.5 °F 83% 29.97 in 10.0 mi East 11.5 mph - N/A   Overcast
7:35 PM 54.5 °F 49.1 °F 82% 29.97 in 10.0 mi East 15.0 mph - N/A   Overcast
7:55 PM 53.6 °F 48.2 °F 82% 29.97 in 10.0 mi ESE 16.1 mph 24.2 mph N/A   Overcast
8:15 PM 53.6 °F 48.2 °F 82% 29.98 in 10.0 mi East 16.1 mph 20.7 mph N/A   Overcast
8:35 PM 53.6 °F 48.2 °F 82% 29.99 in 10.0 mi ESE 13.8 mph 19.6 mph N/A   Overcast
8:55 PM 53.6 °F 48.2 °F 82% 29.99 in 10.0 mi ESE 17.3 mph 21.9 mph N/A   Overcast
9:15 PM 53.2 °F 48.2 °F 83% 30.00 in 10.0 mi ESE 18.4 mph 26.5 mph N/A   Overcast
9:35 PM 53.1 °F 48.2 °F 84% 30.00 in 10.0 mi East 15.0 mph 25.3 mph N/A   Overcast
9:55 PM 53.1 °F 48.6 °F 85% 30.00 in 10.0 mi East 17.3 mph 23.0 mph N/A   Overcast
10:15 PM 53.1 °F 48.6 °F 85% 30.00 in 10.0 mi East 17.3 mph 25.3 mph N/A   Overcast
10:36 PM 53.1 °F 48.6 °F 85% 30.01 in 10.0 mi ESE 13.8 mph 20.7 mph N/A   Overcast
10:55 PM 53.2 °F 48.7 °F 85% 30.00 in 10.0 mi East 15.0 mph 21.9 mph N/A   Overcast
11:35 PM 53.6 °F 48.6 °F 83% 30.00 in 10.0 mi ESE 15.0 mph 23.0 mph N/A   Overcast
11:55 PM 53.6 °F 48.6 °F 83% 30.00 in 10.0 mi East 13.8 mph 24.2 mph N/A   Overcast